Voltar ao catálogo

FENGYUN 1C DEB

AtivoSSO
NORAD 37081·DEBRIS·🇨🇳 China

Lançado May 10, 1999 de Taiyuan Satellite Launch Center

Loading…

Próximas Passagens (próximas 24 horas)

TLE

AtualizadoSource: Space-Track

Época: Sep 13, 2026, 16:30 UTC

1 37081U 99025EFR 26256.68762703  .00010273  00000-0  33879-2 0  9999
2 37081  98.6806  48.8913 0246302 277.1842  80.1396 14.22492313624739

Acompanhe FENGYUN 1C DEB em tempo real com AllMySat

Download on the App Store